Home > Weather > Santos > Past weeks

Flag for Brazil Past Weather in Santos, São Paulo, Brazil — Yesterday and Last 2 Weeks

Now
73 °F

Sunny.


Feels Like: 77 °F
Forecast: 64 / 75 °F
Wind: 5 mph from East

Location: Sao Paulo Airport

Current Time: Jun 30, 2016 at 4:42:32 PM

Latest Report: Jun 30, 2016 at 4:00 PM


Visibility: 10 mi

Pressure: 30.27 "Hg

Humidity: 44%

Dew Point: 50 °F

Location of SantosLocation

Past Weather in Santos — Graph

°F

Santos Temperature Yesterday

Maximum temperature yesterday: 75 °F (at 3:00 PM)
Minimum temperature yesterday: 55 °F (at 2:00 AM)
Average temperature yesterday: 64 °F

High & Low Weather Summary for the Past Weeks

 TemperatureHumidityPressure
High77 °F (Jun 17, 3:00 PM)94% (Jun 18, 6:00 AM)30.42 "Hg (Jun 18, 6:00 AM)
Low52 °F (Jun 21, 2:00 AM)36% (Jun 16, 2:00 PM)30.12 "Hg (Jun 17, 4:00 PM)
Average60 °F76%30.28 "Hg
* Reported Jun 15 3:00 PM — Jun 30 3:00 PM, Santos, Weather by CustomWeather, © 2016

Note: Actual official high and low records may vary slightly from our data, if they occured in-between our weather recording intervals... More about our weather records

Advertising

Santos Weather History for the Previous 24 Hours

Scroll right to see more
 ConditionsComfort  
Time TempWeatherWind HumidityBarometerVisibility
3:00 PM
Thu, Jun 30
72 °FSunny.5 mph50%30.30 "Hg10 mi
2:00 PM73 °FSunny.2 mph47%30.30 "Hg10 mi
1:00 PM72 °FSunny.5 mph50%30.33 "Hg10 mi
12:00 PM72 °FSunny.5 mph53%30.36 "Hg10 mi
11:00 AM70 °FSunny.5 mph57%30.36 "Hg10 mi
10:00 AM66 °FSunny.5 mph68%30.36 "Hg10 mi
9:00 AM64 °FSunny.6 mph73%30.36 "Hg10 mi
8:00 AM61 °FSunny.5 mph83%30.33 "Hg10 mi
7:00 AM61 °FSunny.5 mph77%30.30 "Hg10 mi
6:00 AM61 °FSunny.2 mph77%30.30 "Hg10 mi
3:00 AM63 °FClear.2 mph73%30.30 "Hg10 mi
2:00 AM64 °FClear.2 mph68%30.30 "Hg10 mi
1:00 AM63 °FClear.1 mph77%30.30 "Hg10 mi
12:00 AM64 °FPassing clouds.No wind73%30.30 "Hg6 mi
11:01 PM
Wed, Jun 29
64 °FClear.3 mph68%30.30 "Hg6 mi
10:00 PM66 °FClear.3 mph68%30.30 "Hg10 mi
9:00 PM66 °FClear.6 mph73%30.30 "Hg10 mi
8:00 PM68 °FClear.2 mph69%30.30 "Hg10 mi
7:00 PM70 °FClear.6 mph60%30.27 "Hg10 mi
6:00 PM73 °FClear.3 mph44%30.27 "Hg10 mi
5:00 PM73 °FClear.5 mph47%30.24 "Hg10 mi
4:00 PM75 °FPassing clouds.7 mph44%30.24 "HgN/A
Weather by CustomWeather, © 2016

See weather overviewHow to use our weather pages